Observations for Trim Market St
| Time | AQI | Temp °C | Hum % | Pres Pa | CO μg/m³ | H₂S μg/m³ | NO μg/m³ | NO₂ μg/m³ | O₃ μg/m³ | SO₂ μg/m³ | PM1 μg/m³ | PM2.5 μg/m³ | PM10 μg/m³ |
|---|---|---|---|---|---|---|---|---|---|---|---|---|---|
| Thursday 9 July 2026 | |||||||||||||
| 06:43 | 1 | 17.9 | 76 | 25,490 | 0.34 | 0 | 1.28 | 2.37 | 6.73 | 0 | 1.43 | 2.76 | 5.17 |
| 06:42 | 1 | 17.9 | 76 | 25,035 | 0.31 | 0 | 0.59 | 5.06 | 5.9 | 0 | 2.14 | 4.67 | 7.53 |
| 06:41 | 1 | 17.8 | 76 | 24,559 | 0.23 | 0 | 1.22 | 3.67 | 9.87 | 0 | 2.85 | 4.66 | 8.12 |
| 06:40 | 1 | 17.8 | 76 | 24,051 | 0.21 | 0 | 0 | 4.07 | 8.26 | 0 | 2.14 | 4.18 | 6.94 |
| 06:38 | 1 | 17.8 | 76 | 22,787 | 0.57 | 0 | 3.48 | 5.56 | 4.22 | 0 | 2.85 | 5.13 | 8.71 |
| 06:36 | 1 | 17.7 | 77 | 21,672 | 0.16 | 0 | 0 | 1.85 | 10.9 | 0 | 2.14 | 4.64 | 7.53 |
| 06:34 | 1 | 17.7 | 77 | 20,308 | 0.15 | 0 | 0.39 | 2.44 | 9.87 | 0 | 2.14 | 3.68 | 6.95 |
| 06:33 | 1 | 17.6 | 77 | 19,683 | 0.16 | 0 | 0 | 4.86 | 15.3 | 0 | 1.43 | 3.68 | 6.36 |
| 06:32 | 1 | 17.6 | 77 | 18,984 | 0.17 | 0 | 0 | 2.86 | 5.44 | 0 | 1.43 | 3.2 | 6.36 |
| 06:30 | 1 | 17.5 | 77 | 17,364 | 0.17 | 0 | 0.24 | 2.57 | 16.72 | 0 | 1.43 | 3.67 | 6.95 |
| 06:27 | 1 | 17.5 | 77 | 16,415 | 0.16 | 0 | 0 | 4.95 | 6.75 | 0 | 2.14 | 4.14 | 6.95 |
| 06:24 | 1 | 17.4 | 78 | 14,300 | 0.18 | 0 | 0 | 3.86 | 7.73 | 0 | 1.43 | 4.13 | 6.95 |
| 06:20 | 1 | 17.3 | 78 | 11,517 | 0.25 | 0 | 0 | 6.45 | 9.23 | 0 | 2.85 | 4.59 | 7.53 |
| 06:14 | 1 | 17.1 | 78 | 6,699 | 0.58 | 0 | 0 | 7.58 | 13.03 | 0 | 4.28 | 7.42 | 11.01 |
| 06:11 | 1 | 17.1 | 78 | 5,226 | 0.18 | 0 | 0 | 7.77 | 8.04 | 0 | 1.43 | 3.15 | 5.8 |
| 06:10 | 1 | 17 | 78 | 4,724 | 0.18 | 0 | 0.63 | 2.88 | 10.68 | 0 | 2.14 | 4.57 | 7.53 |
| 06:09 | 1 | 17 | 78 | 3,929 | 0.16 | 0 | 0 | 3.38 | 14.72 | 0 | 1.43 | 3.14 | 5.8 |
| 06:08 | 1 | 17 | 78 | 3,320 | 0.17 | 0 | 0.74 | 2.67 | 10.5 | 0 | 2.14 | 4.56 | 8.11 |
| 06:07 | 1 | 17 | 78 | 3,226 | 0.16 | 0 | 0 | 6.07 | 11 | 0 | 2.14 | 3.61 | 7.53 |
| 06:06 | 1 | 17 | 78 | 3,438 | 0.14 | 0 | 0 | 1.47 | 12.64 | 0 | 0.71 | 3.14 | 6.38 |